Location: Godiavel Galaoual
(15.2485°N, 12.6604°W)
Time: 03:37:11
(UTC+00:00)

BUGSAT 1 - Pass Details

Date: 06 August 2021
Orbit: 558 x 601 km, 98.1° (Epoch: 26 September)

Event Time Altitude Azimuth Distance (km) Brightness Sun altitude
Rises 05:15:44 0° 9° (N) 2,831 ? -18.6°
Reaches altitude 10° 05:17:54 10° 8° (N) 1,932 ? -18.1°
Maximum altitude 05:22:05 78° 283° (WNW) 616 ? -17.2°
Enters shadow 05:25:16 17° 197° (SSW) 1,521 ? -16.5°
